Regional Weather Roundup
Issued by NWS Northern Indiana

Home | Current Version | Previous Version | Graphics & Text | Print | Product List | Glossary On
Versions: 1 2 3 4 5 6 7 8 9 10 11 12 13 14 15 16 17 18 19 20 21 22 23 24 25 26 27 28 29 30 31 32 33 34 35 36 37 38 39 40 41 42 43 44 45 46 47 48 49 50
000
ASUS43 KIWX 200310
RWRIWX

KIWX WEATHER ROUNDUP
NATIONAL WEATHER SERVICE NORTHERN INDIANA
1100 PM EDT SAT AUG 19 2017

NOTE: "FAIR" INDICATES FEW OR NO CLOUDS BELOW 12,000 FEET WITH NO
SIGNIFICANT WEATHER AND/OR OBSTRUCTIONS TO VISIBILITY.

* THESE STATIONS ARE NOT UNDER NWS QUALITY CONTROL. THEY ALSO MAY NOT
  REPORT WEATHER SUCH AS PRECIPITATION OR FOG.

INZ001>027-200400-
NORTHERN INDIANA

CITY           SKY/WX    TMP DP  RH WIND       PRES   REMARKS
GARY*          CLEAR     63  57  82 VRB3      29.98R
VALPARAISO     CLEAR     64  59  83 NE3       29.99S
MICHIGAN CITY* CLEAR     61  61 100 CALM      30.00R
LAPORTE*       CLEAR     60  56  87 CALM      30.00S
KNOX*          CLEAR     61  59  94 CALM      29.99S
SOUTH BEND     CLEAR     61  60  97 N3        30.01R
GOSHEN         CLEAR     65  58  78 SE3       30.00R
MONTICELLO*    CLEAR     67  63  86 CALM      29.98S
LOGANSPORT*    CLEAR     63  61  94 CALM      30.01R
ROCHESTER*     CLEAR     66  63  88 CALM      30.01R
WARSAW*        CLEAR     63  63 100 CALM      30.01R
AUBURN*        CLEAR     64  61  88 CALM      30.01S
FORT WAYNE     CLEAR     66  60  81 CALM      30.01R
HUNTINGTON*    CLEAR     64  63  96 CALM      30.00S
PERU/GRISSOM   CLEAR     67  63  87 E3        29.99R
MARION*        CLEAR     64  63  94 CALM      30.01R

$$
INZ028>050-200400-
CENTRAL INDIANA

CITY           SKY/WX    TMP DP  RH WIND       PRES   REMARKS
LAFAYETTE      CLEAR     68  64  87 CALM      29.98R
KOKOMO*        CLEAR     68  63  84 CALM      30.01
MUNCIE*        CLEAR     66  63  90 CALM      30.01R
INDIANAPOLIS   PTCLDY    76  63  64 NE7       29.99R

$$
MIZ043>046-050>051-056>058-064>065-071>073-077>080-200400-
SOUTHWEST LOWER MICHIGAN

CITY           SKY/WX    TMP DP  RH WIND       PRES   REMARKS
BATTLE CREEK   CLEAR     64  60  87 W3        30.01R
BENTON HARBOR  CLEAR     60  57  89 CALM      29.99R
COLDWATER*     CLEAR     63  60  89 CALM      30.01R
HILLSDALE*     MOCLDY    61  57  88 CALM      30.01S
HOLLAND        CLEAR     62  60  93 CALM      29.99R FOG
GRAND RAPIDS   CLEAR     66  61  84 SW6       29.99R
KALAMAZOO      CLEAR     66  56  70 CALM      30.02R
STURGIS*       CLEAR     63  59  88 CALM      30.00S
THREE RIVERS*  FAIR      65  58  79 CALM      30.01R

$$
OHZ001>008-015>018-024>025-200400-
NORTHWEST OHIO

CITY           SKY/WX    TMP DP  RH WIND       PRES   REMARKS
WAUSEON*       FAIR      63  61  94 CALM      30.00R
DEFIANCE       CLEAR     65  62  90 CALM      30.00R
FINDLAY        CLEAR     66  60  81 CALM      30.00R
TOLEDO EXPRESS CLEAR     64  64 100 CALM      29.99R
TOLEDO METCALF CLEAR     69  61  75 CALM      30.00R
LIMA           CLEAR     64  61  90 S3        30.02R

$$
AND FOR LAKE MICHIGAN COASTAL AND OPEN LAKE BUOY OBSERVATIONS

STATION/POSITION TEMP    WIND        PRES    VSBY  WAVE
                 AIR SEA DIR/SP/G                  HT/PER
                 (F)     (DEG/KT/KT) (MB)    (MI)  (FT/S)
CALUMET HARBOR    75     120/  3/  6 1014.5R
MICHIGAN CITY     70     110/  3/  4   N/A
BURNS HARBOR      74     100/  8/  9 1015.6
SAINT JOSEPH      67     110/  1/  3 1016.6
SOUTH LAKE BUOY   72 72  190/  6/  8 1015.0R         1
4 MI NW BRIDGMAN  72 79  140/  6/  6 1015.2          1
MICHIGAN CITY     73 75  120/  6/  8   N/A           1

$$
&&



USA.gov is the U.S. government's official web portal to all federal, state and local government web resources and services.